Regional Weather Roundup
Issued by NWS

Home | Current Version | Previous Version | Text Only | Print | Product List | Glossary On
Versions: 1 2 3 4 5 6 7 8 9 10 11 12 13 14 15 16 17 18 19 20 21 22 23 24 25 26 27 28 29 30 31 32 33 34 35 36 37 38 39 40 41 42 43 44 45 46 47 48 49 50
000
ASUS43 KMPX 191501
RWRMN
WEATHER ROUNDUP FOR MINNESOTA
NATIONAL WEATHER SERVICE TWIN CITIES/CHANHASSEN MN
1000 AM CDT SAT MAY 19 2018


NOTE: "FAIR" INDICATES FEW OR NO CLOUDS BELOW 12,000 FEET WITH NO
SIGNIFICANT WEATHER AND/OR OBSTRUCTIONS TO VISIBILITY. N/A MEANS
CURRENT SKY AND/OR WEATHER CONDITIONS ARE NOT AVAILABLE.

MNZ060>063-068>070-191600-
   Twin Cities Metro

CITY           SKY/WX    TMP DP  RH WIND       PRES   REMARKS
TWIN CITIES    CLOUDY    58  53  84 NW10      29.91R
ST PAUL        CLOUDY    59  52  77 NW13      29.91R
CRYSTAL        CLOUDY    56  51  84 NW12      29.91R
BLAINE         CLOUDY    57  54  88 NW10      29.91R
LAKEVILLE      CLOUDY    54  54 100 NW12      29.91R
EDEN PRAIRIE   CLOUDY    56  51  84 N10       29.91R
SOUTH ST PAUL  FAIR      60  52  74 W9        29.90S
LAKE ELMO      PTSUNNY   61  55  82 W7        29.91R
$$
MNZ001>005-007-008-013>017-022>024-027-028-191600-
   Northwest Minnesota

CITY           SKY/WX    TMP DP  RH WIND       PRES   REMARKS
BEMIDJI        CLOUDY    44  40  84 NE20G26   30.12R
HALLOCK        FAIR      54  43  66 N15       30.23S
ROSEAU         FAIR      48  43  81 N14       30.21R
WARROAD        FAIR      48  43  81 N12G17    30.21R
THIEF RVR FALL FAIR      51  38  60 N18G28    30.18R
CROOKSTON      FAIR      52  39  62 NE17G24   30.18R
FOSSTON        FAIR      46  45  93 N16G24    30.15R
DETROIT LAKES  CLOUDY    48  41  76 N14G22    30.10R
MOORHEAD       FAIR      50  41  71 N22G29    30.14R
PARK RAPIDS    CLOUDY    46  41  82 N14G31    30.07R
MAHNOMEN       PTSUNNY   47  41  79 NE18      30.12R
$$
MNZ006-009>011-018-025>026-191600-
   North Central Minnesota

CITY           SKY/WX    TMP DP  RH WIND       PRES   REMARKS
BAUDETTE       FAIR      50  40  68 NE12G23   30.17R
FLAG ISLAND    FAIR      46  37  71 N16       30.19R
INTL FALLS     CLOUDY    45  40  82 NE15G25   30.12S
WASKISH        CLOUDY    46  41  81 NE13G21   30.15R
BIG FORK       CLOUDY    45  41  87 N8        30.10R
LONGVILLE      CLOUDY    45  41  87 N13G24    30.05R
GRAND RAPIDS   CLOUDY    45  42  89 N13G21    30.06R
CRANE LAKE     CLOUDY    43  41  93 N8        30.10S
ORR            CLOUDY    43  39  87 CALM      30.06R
COOK           CLOUDY    45  43  93 N12       30.07R
WALKER         CLOUDY    43  40  89 N14G21    30.08R
$$
MNZ012-019>021-037-191600-
   Northeast Minnesota

CITY           SKY/WX    TMP DP  RH WIND       PRES   REMARKS
DULUTH         CLOUDY    50  45  83 NW12      29.95R
ELY            CLOUDY    45  43  93 N9G17     30.02R
HIBBING        CLOUDY    45  41  86 N17G25    30.03R
EVELETH        CLOUDY    46  43  87 N8G16     30.03R
DULUTH HARBOR  CLOUDY    46  41  81 CALM      29.97R
TWO HARBORS    CLOUDY    55  46  71 N13G22    29.94R
SILVER BAY     CLOUDY    52  46  82 N14G22    29.95R
GRAND MARAIS     N/A     50  42  74 N17G32    29.93R
G MARAIS ARPRT RAIN      43  37  81 N22G30    29.97R
$$
MNZ029>031-032-039>041-046>048-054>057-064-191600-
   West Central Minnesota

CITY           SKY/WX    TMP DP  RH WIND       PRES   REMARKS
FERGUS FALLS   CLOUDY    48  45  87 N15G22    30.03S
WHEATON        CLOUDY    46  43  87 N17G25    30.09R
MORRIS         CLOUDY    52  45  76 N17       30.02S
ALEXANDRIA     CLOUDY    51  44  77 N16       30.02
ELBOW LAKE     CLOUDY    49  45  84 N17       30.04R
WADENA         CLOUDY    46  45  93 N16G22    30.04R
GLENWOOD       CLOUDY    48  45  87 N16G23    30.00S
APPLETON       CLOUDY    52  45  76 N21       30.03R
BENSON         CLOUDY    52  45  76 N16       30.02S
ORTONVILLE     CLOUDY    46  43  87 N18G24    30.06R
MADISON        CLOUDY    52  46  82 N25       30.02F
WILLMAR        CLOUDY    52  46  82 N18       29.99S
$$
MNZ033>034-036-042>043-049>051-058-059-191600-
   Central Minnesota

CITY           SKY/WX    TMP DP  RH WIND       PRES   REMARKS
ST CLOUD       CLOUDY    53  46  77 N16G28    29.95R
SAUK CENTRE    CLOUDY    49  44  81 N20G26    29.99S
PAYNESVILLE    CLOUDY    50  47  89 N10G18    29.98R
AITKIN         CLOUDY    45  43  93 N16       29.99S
PINE RIVER     CLOUDY    45  39  81 N17G28    30.07R
BRAINERD       CLOUDY    49  43  80 N16G28    30.01R
STAPLES        CLOUDY    46  43  87 N14G21    30.03R
LONG PRAIRIE   CLOUDY    46  43  87 NW14G20   30.00S
LITTLE FALLS   PTSUNNY   50  45  81 N9G16     29.98S
LITCHFIELD     CLOUDY    54  52  94 N15       29.96R FOG
BUFFALO        CLOUDY    53  50  89 N9        29.94S FOG
MAPLE LAKE     CLOUDY    54  52  94 NW14      29.95R
HUTCHINSON     CLOUDY    55  51  86 NW18      29.95S
$$
MNZ037-044-045-052-053-191600-
   East Central Minnesota

CITY           SKY/WX    TMP DP  RH WIND       PRES   REMARKS
PRINCETON      CLOUDY    55  48  76 NW15      29.94R
MORA           CLOUDY    50  45  81 N9G17     29.97R
CAMBRIDGE      CLOUDY    59  48  67 N9G18     29.93R
RUSH CITY      CLOUDY    56  51  81 N12G18    29.93R
MOOSE LAKE     CLOUDY    50  43  76 N16G22    29.96R
HINCKLEY       CLOUDY    54  48  82 N12G22    29.95R
CLOQUET        CLOUDY    48  43  81 N13G25    29.97R
MCGREGOR       CLOUDY    46  45  93 N14       30.00S
$$
MNZ071>073-080-081-089-090-097-098-191600-
   Southwest Minnesota

CITY           SKY/WX    TMP DP  RH WIND       PRES   REMARKS
MONTEVIDEO     CLOUDY    52  46  82 N23G30    30.00R
GRANITE FALLS  CLOUDY    52  47  81 NW17      30.01S
CANBY          CLOUDY    48  45  88 NW16G24   30.03S
MARSHALL       CLOUDY    49  44  83 N18       30.01R
REDWOOD FALLS  CLOUDY    51  46  83 NW10      29.98R
OLIVIA         CLOUDY    52  46  82 N15G21    29.96S
PIPESTONE      CLOUDY    46  45  93 NE15G22   30.00F
WINDOM         CLOUDY    52  34  50 NW22      29.96F
WORTHINGTON    CLOUDY    48  45  89 N20G29    29.98S
JACKSON        CLOUDY    50  45  81 N14G26    29.97R
TRACY          CLOUDY    48  46  90 N17G23    30.00S
SLAYTON        CLOUDY    46  45  93 N20       30.01R FOG
$$
MNZ065>067-074>077-082>085-091>093-191600-
   South Central Minnesota

CITY           SKY/WX    TMP DP  RH WIND       PRES   REMARKS
MANKATO        CLOUDY    52  47  83 NW15      29.94R
NEW ULM        CLOUDY    54  46  76 NW13      29.95S
ST JAMES       CLOUDY    52  46  82 NW16G22   29.97R
FAIRMONT       CLOUDY    52  46  80 N18       29.95R
GLENCOE        CLOUDY    55  51  86 NW10G16   29.93S
FARIBAULT      CLOUDY    55  48  76 CALM      29.93R
OWATONNA       CLOUDY    54  48  82 NW12      29.93R
WASECA         CLOUDY    52  46  82 NW12      29.94S
ALBERT LEA     CLOUDY    54  45  71 NW10      29.92R
$$
MNZ078>079-086>088-094>096-191600-
   Southeast Minnesota

CITY           SKY/WX    TMP DP  RH WIND       PRES   REMARKS
ROCHESTER      CLOUDY    63  57  81 W8        29.90S
RED WING       CLOUDY    63  54  72 W8        29.88S
STANTON        CLOUDY    57  52  83 NW9       29.90S
DODGE CENTER   CLOUDY    55  50  82 W9        29.91R
WINONA         CLOUDY    68  59  73 NE3       29.86S
AUSTIN         CLOUDY    57  52  82 NW8       29.90S
PRESTON        CLOUDY    64  57  78 W7        29.90S
$$
ABBREVIATIONS USED IN REMARKS
   TC - TEMPERATURES IN CELSIUS
  WCI - WIND CHILL INDEX
   HX - HEAT INDEX
  VSB - VISIBILITY
$$




USA.gov is the U.S. government's official web portal to all federal, state and local government web resources and services.